User: anonymous   Login
Location: Buckeye Ditch
(40.9104°N, 122.9517°W)
Time: 02:12:31
(UTC+00:00)
Language:

Cosmos 1656 Rocket - Orbit

View from above orbital plane
View from above orbital plane
View from above satellite
View from above satellite

Ground track
Ground track

The orbit data is extracted from the following two-line orbital elements,

1 15772U 85042D   24167.57374505  .00000091  00000-0  62712-4 0  9999
2 15772  71.1087 342.8869 0034367  26.5254  30.6887 14.21635041 24549
Epoch (UTC): 15 June 2024 13:46:11
Eccentricity: 0.0034367
inclination: 71.1087°
perigee height: 795 km
apogee height: 844 km
right ascension of ascending node: 342.8869°
argument of perigee: 26.5254°
revolutions per day: 14.21635041
mean anomaly at epoch: 30.6887°
orbit number at epoch: 2454

The dashed part of the orbit path shows where the satellite is in the earth's shadow,  

DLR